Alcoa, TN

10:26 AM EST on January 24, 2017 (GMT -0500)
McGhee Tyson

Weather History for KTYS - June, 2013

Change the Weather History Date:

Thursday, June 27, 2013

  Actual Average Record
Temperature  
Mean Temperature 76 °F 77 °F  
Max Temperature 85 °F 88 °F 101 °F (1931)
Min Temperature 67 °F 67 °F 54 °F (1961)
Degree Days  
Heating Degree Days 0 0  
Month to date heating degree days 0 0  
Since 1 June heating degree days 0 0  
Since 1 July heating degree days 3625 3633  
Cooling Degree Days 11 12  
Month to date cooling degree days 283 266  
Year to date cooling degree days 439 428  
Since 1 June cooling degree days 283 266  
Growing Degree Days 25 (Base 50)    
Moisture  
Dew Point 70 °F    
Average Humidity 83    
Maximum Humidity 97    
Minimum Humidity 69    
Precipitation  
Precipitation 1.58 in 0.13 in 1.86 in (1900)
Month to date precipitation 9.24 3.36  
Year to date precipitation 40.66 24.80  
Snow  
Snow 0.00 in 0.00 in - ()
Month to date snowfall 0.0 0.0  
Since 1 June snowfall 0.0 0.0  
Since 1 July snowfall 3.8 6.5  
Snow Depth 0.00 in    
Sea Level Pressure  
Sea Level Pressure 29.86 in    
Wind  
Wind Speed 9 mph (SW)    
Max Wind Speed 22 mph    
Max Gust Speed 30 mph    
Visibility 7 miles    
Events Rain , Thunderstorm    
T = Trace of Precipitation, MM = Missing Value Source: NWS Daily Summary

Daily Weather History Graph

Daily Weather History Graph

Search for Another Location

Airport or City:

Trip Planner

Search our weather history database for the weather conditions in past years. The results will help you decide how hot, cold, wet, or windy it might be!

Date:

Astronomy

Jun. 27, 2013 Rise Set
Actual Time 6:21 AM EDT 8:56 PM EDT
Civil Twilight 5:51 AM EDT 9:26 PM EDT
Nautical Twilight 5:14 AM EDT 10:03 PM EDT
Astronomical Twilight 4:32 AM EDT 10:45 PM EDT
Moon No Moon Rise 11:11 AM EDT (6/27)
Length of Visible Light 15h 34m
Length of Day
14h 34m
Waning Gibbous, 76% of the Moon is Illuminated
Jun 27
Waning Gibbous
Jun 30
Last Quarter
Jul 8
New
Jul 15
First Quarter
Jul 22
Full

Hourly Weather History & Observations

Time (EDT) Temp. Heat Index Dew Point Humidity Pressure Visibility Wind Dir Wind Speed Gust Speed Precip Events Conditions
12:40 AM 78.8 °F - 69.8 °F 74% 29.92 in 10.0 mi South 15.0 mph - 0.00 in   Scattered Clouds
12:53 AM 78.1 °F - 70.0 °F 76% 29.88 in 10.0 mi SSW 11.5 mph - 0.00 in   Mostly Cloudy
1:53 AM 78.1 °F - 71.1 °F 79% 29.88 in 10.0 mi SW 17.3 mph - N/A   Overcast
2:40 AM 78.8 °F - 71.6 °F 78% 29.92 in 10.0 mi West 6.9 mph - 0.00 in Rain , Thunderstorm Light Thunderstorms and Rain
2:53 AM 73.0 °F - 66.9 °F 81% 29.91 in 3.0 mi NNW 18.4 mph 27.6 mph 0.00 in Rain , Thunderstorm Heavy Thunderstorms and Rain
2:55 AM 71.6 °F - 66.2 °F 83% 29.94 in 2.0 mi NW 20.7 mph 29.9 mph 0.01 in Rain , Thunderstorm Heavy Thunderstorms and Rain
2:58 AM 69.8 °F - 66.2 °F 88% 29.94 in 1.2 mi NNW 16.1 mph 29.9 mph 0.04 in Rain , Thunderstorm Heavy Thunderstorms and Rain
3:01 AM 69.8 °F - 66.2 °F 88% 29.93 in 3.0 mi North 10.4 mph 29.9 mph 0.13 in Rain , Thunderstorm Light Thunderstorms and Rain
3:13 AM 69.8 °F - 66.2 °F 88% 29.92 in 2.0 mi West 9.2 mph 21.9 mph 0.19 in Rain , Thunderstorm Heavy Thunderstorms and Rain
3:16 AM 69.8 °F - 64.4 °F 83% 29.91 in 1.0 mi Variable 3.5 mph 21.9 mph 0.22 in Rain , Thunderstorm Heavy Thunderstorms and Rain
3:24 AM 66.2 °F - 64.4 °F 94% 29.90 in 3.0 mi SSW 8.1 mph - 0.35 in Rain , Thunderstorm Light Thunderstorms and Rain
3:37 AM 66.2 °F - 64.4 °F 94% 29.90 in 7.0 mi SSE 10.4 mph - 0.36 in Thunderstorm Thunderstorm
3:53 AM 66.9 °F - 64.9 °F 93% 29.90 in 7.0 mi SE 5.8 mph - 0.36 in Thunderstorm Thunderstorm
4:39 AM 68.0 °F - 66.2 °F 94% 29.91 in 1.5 mi SSE 3.5 mph - 0.02 in Rain , Thunderstorm Heavy Thunderstorms and Rain
4:53 AM 68.0 °F - 66.9 °F 96% 29.87 in 0.8 mi SSE 6.9 mph - N/A Rain , Thunderstorm Heavy Thunderstorms and Rain
5:02 AM 68.0 °F - 66.2 °F 94% 29.90 in 3.0 mi SE 11.5 mph - 0.39 in Rain , Thunderstorm Heavy Thunderstorms and Rain
5:30 AM 69.8 °F - 66.2 °F 88% 29.88 in 10.0 mi ENE 3.5 mph - 0.56 in   Overcast
5:53 AM 69.1 °F - 66.9 °F 93% 29.86 in 10.0 mi North 3.5 mph - 0.57 in   Overcast
6:53 AM 69.1 °F - 68.0 °F 96% 29.86 in 5.0 mi West 3.5 mph - N/A   Overcast
7:53 AM 70.0 °F - 68.0 °F 93% 29.85 in 5.0 mi Calm Calm - N/A   Overcast
8:53 AM 73.9 °F - 71.1 °F 91% 29.86 in 10.0 mi SW 8.1 mph - N/A   Overcast
9:53 AM 78.1 °F - 70.0 °F 76% 29.85 in 10.0 mi SW 16.1 mph - N/A   Overcast
10:53 AM 79.0 °F - 70.0 °F 74% 29.86 in 10.0 mi SW 13.8 mph - N/A   Overcast
11:17 AM 80.6 °F 83.9 °F 69.8 °F 70% 29.89 in 10.0 mi SW 17.3 mph - N/A   Overcast
11:53 AM 82.0 °F 86.7 °F 72.0 °F 71% 29.86 in 10.0 mi SW 18.4 mph 23.0 mph N/A   Mostly Cloudy
12:53 PM 81.0 °F 84.9 °F 71.1 °F 72% 29.85 in 10.0 mi WSW 16.1 mph - N/A   Overcast
1:22 PM 82.4 °F 87.2 °F 71.6 °F 70% 29.88 in 10.0 mi SW 11.5 mph - N/A   Overcast
1:53 PM 82.0 °F 86.7 °F 72.0 °F 71% 29.84 in 10.0 mi WSW 9.2 mph - N/A   Overcast
2:53 PM 80.1 °F 83.8 °F 72.0 °F 76% 29.83 in 10.0 mi SW 15.0 mph - 0.00 in Rain Light Rain
3:17 PM 78.8 °F - 73.4 °F 83% 29.87 in 2.5 mi WSW 16.1 mph 23.0 mph 0.00 in Rain Heavy Rain
3:29 PM 78.8 °F - 73.4 °F 83% 29.86 in 3.0 mi SW 9.2 mph - 0.08 in Rain Rain
3:33 PM 78.8 °F - 73.4 °F 83% 29.86 in 1.0 mi SW 16.1 mph - 0.08 in Rain Heavy Rain
3:40 PM 75.2 °F - 73.4 °F 94% 29.85 in 2.0 mi South 9.2 mph 18.4 mph 0.16 in Rain Heavy Rain
3:53 PM 77.0 °F - 73.0 °F 88% 29.82 in 5.0 mi Variable 4.6 mph - 0.40 in   Mostly Cloudy
4:53 PM 84.0 °F 91.2 °F 73.9 °F 72% 29.80 in 10.0 mi SW 11.5 mph - N/A   Mostly Cloudy
5:53 PM 82.9 °F 89.4 °F 73.9 °F 74% 29.78 in 10.0 mi SW 8.1 mph - N/A   Scattered Clouds
6:30 PM 78.8 °F - 71.6 °F 78% 29.83 in 10.0 mi WSW 19.6 mph 26.5 mph 0.00 in Rain , Thunderstorm Light Thunderstorms and Rain
6:36 PM 77.0 °F - 69.8 °F 78% 29.83 in 2.0 mi West 15.0 mph 26.5 mph 0.00 in Rain , Thunderstorm Thunderstorms and Rain
6:38 PM 75.2 °F - 69.8 °F 83% 29.83 in 1.5 mi West 11.5 mph 24.2 mph 0.00 in Rain , Thunderstorm Thunderstorms and Rain
6:42 PM 73.4 °F - 69.8 °F 88% 29.82 in 3.0 mi West 11.5 mph 19.6 mph 0.10 in Rain , Thunderstorm Light Thunderstorms and Rain
6:53 PM 75.9 °F - 71.1 °F 85% 29.78 in 10.0 mi SW 8.1 mph - 0.11 in Thunderstorm Thunderstorm
6:59 PM 75.2 °F - 71.6 °F 89% 29.82 in 10.0 mi SSW 11.5 mph - N/A   Mostly Cloudy
7:53 PM 75.0 °F - 69.1 °F 82% 29.79 in 10.0 mi SW 10.4 mph - N/A   Mostly Cloudy
8:38 PM 75.2 °F - 69.8 °F 83% 29.83 in 10.0 mi SW 8.1 mph - N/A Thunderstorm Thunderstorm
8:53 PM 73.9 °F - 70.0 °F 87% 29.81 in 10.0 mi SSW 6.9 mph - N/A Thunderstorm Thunderstorm
9:07 PM 73.4 °F - 69.8 °F 88% 29.85 in 10.0 mi NE 13.8 mph 18.4 mph N/A Thunderstorm Thunderstorm
9:37 PM 75.2 °F - 69.8 °F 83% 29.85 in 10.0 mi SE 4.6 mph - N/A   Mostly Cloudy
9:53 PM 73.9 °F - 69.1 °F 85% 29.82 in 10.0 mi SSE 4.6 mph - N/A   Mostly Cloudy
10:53 PM 72.0 °F - 69.1 °F 91% 29.83 in 10.0 mi SE 4.6 mph - N/A   Mostly Cloudy
11:53 PM 72.0 °F - 69.1 °F 91% 29.84 in 10.0 mi Calm Calm - N/A   Scattered Clouds